Terminal Aerodrome Forecast
Issued by NWS Des Moines, IA

Home | Current Version | Previous Version | Text Only | Print | Product List | Glossary On
Versions: 1 2 3 4 5 6 7 8 9 10 11 12 13 14 15 16 17 18 19 20 21 22 23 24 25 26 27 28 29 30 31 32 33 34 35
000
FTUS43 KDMX 170520
TAFALO
TAF
KALO 170520Z 1706/1806 VRB03KT P6SM SCT070
     FM170800 16005KT P6SM SCT050 BKN070
      TEMPO 1709/1713 5SM BR
     FM171600 13005KT P6SM SCT040
     FM172300 08003KT P6SM SKC=

USA.gov is the U.S. government's official web portal to all federal, state and local government web resources and services.